Wind_Speed
43 44 44 44 45 45 45 45 45 43 43 43 42 43 43 43 43 43 43 42 42 42 42 42 43 43 43 44 44 44 44 44 44 44 44 44 44 45
44 44 44 44 45 47 47 48 48 46 45 44 44 44 44 45 44 44 44 45 44 44 45 45 45 45 46 46 46 46 46 46 46 46 46 46 46 46
45 45 46 47 47 48 48 49 49 48 47 47 47 46 47 46 46 46 47 47 47 47 47 48 48 48 49 48 48 49 49 48 48 48 48 48 48 47
46 46 47 48 48 48 49 49 49 49 50 50 50 50 49 49 49 49 49 49 50 50 50 51 51 51 51 51 51 51 51 50 50 50 50 49 49 49
48 48 49 49 49 50 50 50 50 50 52 53 53 53 52 51 51 51 52 52 52 52 53 53 53 54 53 52 53 53 52 52 51 51 51 51 50 50
50 50 51 51 51 51 51 51 51 52 53 53 54 54 54 53 52 53 54 55 54 54 55 55 55 54 54 53 53 53 53 53 52 52 52 51 51 50
51 51 52 52 52 51 52 53 53 54 54 54 54 55 55 55 55 55 56 56 56 55 56 56 55 54 54 54 54 54 54 54 53 52 52 52 52 52
52 52 52 52 52 52 53 53 54 53 53 54 55 55 55 56 56 56 56 56 56 56 56 55 54 54 55 55 55 55 55 54 54 53 53 53 52 52
51 52 53 53 54 54 53 53 53 53 53 53 54 55 55 56 57 56 56 55 55 55 56 55 55 55 55 55 55 55 55 55 55 54 54 53 53 52
51 51 52 52 52 52 53 53 53 54 54 54 54 55 55 55 55 55 55 55 55 54 55 55 55 55 55 55 56 56 56 55 55 54 52 52 51 51
51 52 52 51 51 52 54 54 54 54 54 54 55 55 55 55 55 55 54 54 54 54 54 55 55 54 54 54 55 55 55 54 53 52 51 51 50 50
51 51 51 51 52 53 54 54 54 54 54 54 53 53 54 54 54 54 54 54 54 54 53 54 54 54 53 52 53 53 53 52 52 51 51 50 50 49
51 51 52 52 52 52 53 53 53 53 54 53 53 53 53 53 53 53 53 54 54 53 53 53 53 53 53 51 49 50 50 50 50 51 50 50 50 49
53 53 52 53 53 52 52 52 53 53 52 52 52 52 52 52 52 53 53 53 53 52 52 52 52 51 51 49 48 48 49 49 49 50 49 49 49 49
53 54 54 54 53 53 52 51 52 52 51 51 51 50 51 52 51 51 51 51 51 51 51 51 51 50 50 49 47 47 47 48 48 48 48 48 48 48
52 53 53 53 53 52 51 51 50 50 50 49 50 50 50 50 50 50 50 50 50 50 50 50 49 48 48 48 47 46 46 46 46 47 47 47 47 47
50 51 51 51 51 50 50 50 49 49 48 48 49 49 49 49 49 49 49 49 48 47 46 46 46 46 46 47 46 45 45 46 46 46 46 45 45 45
48 48 48 49 49 49 49 48 48 48 48 48 48 47 47 48 48 48 47 47 46 45 44 44 45 45 44 44 44 44 44 44 44 44 44 43 42 42
47 47 47 48 48 48 47 47 46 46 46 47 47 47 47 47 47 46 45 44 43 43 43 43 43 43 43 42 42 43 43 42 42 41 41 40 39 38
46 46 46 46 46 45 45 44 45 45 46 46 46 46 45 45 45 45 44 43 43 42 42 42 42 42 42 41 41 41 42 41 39 38 37 37 36 35
45 45 44 44 44 44 43 44 44 44 45 45 44 43 43 43 42 42 42 42 42 41 41 41 41 42 42 41 40 38 38 38 36 36 35 34 33 33
43 43 43 43 43 43 43 43 43 43 43 42 42 42 41 41 40 40 41 41 41 41 41 41 41 41 40 39 38 36 35 35 35 34 33 32 32 31
40 40 40 41 42 42 42 42 41 41 41 41 40 40 40 39 40 40 41 41 41 41 40 40 39 38 37 37 36 35 34 34 33 32 31 31 31 30
Wind_Direction
264 265 265 266 268 269 270 271 271 270 268 269 270 272 274 274 275 276 277 279 280 279 279 279 281 281 282 283 282 283 283 283 284 284 285 286 287 286
264 265 266 268 269 270 271 272 270 269 269 269 270 271 274 275 276 276 277 278 278 279 279 280 282 283 283 284 283 283 283 284 284 284 284 285 285 286
265 266 267 269 270 271 271 271 270 269 270 270 270 272 274 274 275 276 276 276 277 279 279 280 281 282 283 283 282 282 282 283 283 283 283 283 284 285
265 266 267 269 270 271 271 271 270 270 271 270 271 273 274 274 274 276 276 276 277 278 279 279 281 281 282 281 281 281 281 282 283 283 283 283 284 284
265 267 268 270 270 270 270 270 270 271 272 272 272 274 275 274 275 276 276 277 278 278 279 279 280 280 281 281 280 280 280 281 281 282 283 284 284 284
267 267 268 269 269 270 270 270 270 271 273 273 274 275 275 275 276 276 277 277 277 278 278 279 279 279 279 280 280 280 280 280 281 282 283 284 284 285
267 268 269 269 270 270 270 271 271 273 273 274 275 275 275 275 276 277 278 278 277 277 278 278 278 278 279 280 280 281 281 281 281 282 283 283 284 284
268 268 269 269 270 271 271 272 273 273 273 274 275 276 275 276 277 278 278 278 277 277 277 277 278 278 279 279 280 280 280 280 281 281 282 282 283 283
271 271 271 270 271 271 271 272 272 273 274 275 275 275 276 276 277 277 277 277 277 277 277 277 278 278 278 279 279 280 280 280 280 281 281 281 281 282
271 271 271 271 272 272 272 272 273 273 273 274 275 275 275 276 276 276 276 276 277 277 277 278 278 278 278 278 279 279 279 279 280 280 280 280 280 281
270 271 271 271 272 272 273 273 273 273 274 275 275 276 276 277 277 277 277 277 277 278 278 279 279 279 278 278 278 279 279 279 279 279 279 279 280 281
271 271 272 272 273 273 274 273 273 273 273 275 276 276 276 277 278 278 277 278 279 279 279 280 280 280 279 279 279 279 279 279 278 278 278 278 279 279
270 271 272 273 273 273 273 274 274 274 274 275 276 276 276 276 276 277 277 278 279 279 279 280 280 280 280 279 279 278 278 279 279 279 278 278 278 279
270 271 272 273 273 273 274 274 275 275 274 275 276 275 274 275 276 277 277 278 278 279 280 280 280 280 279 279 279 279 278 279 279 279 278 278 278 279
271 272 272 273 273 274 274 275 275 275 275 274 274 275 275 275 276 277 277 277 278 279 280 280 280 280 280 280 280 280 279 278 278 279 279 278 278 278
273 273 273 273 274 274 274 275 275 274 274 274 274 274 275 276 277 278 277 277 278 279 280 280 280 281 281 281 281 280 279 279 279 279 279 279 279 279
273 273 274 274 274 274 274 274 274 274 275 275 276 276 276 277 277 278 278 279 280 280 280 280 281 281 281 281 280 279 279 280 281 280 281 280 279 278
274 275 275 275 274 274 273 273 273 274 275 276 277 276 277 277 278 279 279 280 280 280 279 279 279 279 279 280 281 281 280 280 281 281 281 281 279 278
275 275 275 275 275 273 272 272 273 274 275 276 276 277 278 278 278 278 278 278 279 279 278 278 279 280 279 280 280 281 281 281 280 280 280 280 278 277
275 276 276 276 274 272 272 272 273 274 275 276 277 278 278 278 278 277 277 277 278 278 278 277 279 280 281 281 281 280 280 280 281 280 279 278 277 277
275 275 275 275 273 272 272 273 274 275 276 277 277 278 278 278 277 276 276 276 277 277 278 278 278 279 280 281 280 279 279 279 280 280 279 277 277 277
275 275 275 274 273 272 273 274 275 275 276 277 278 277 278 277 277 277 277 277 277 278 277 277 278 279 279 279 278 278 278 279 279 279 277 276 276 277
275 275 275 274 274 274 274 275 276 276 277 277 277 278 278 278 278 278 278 278 278 278 277 277 277 278 277 278 277 276 277 277 276 276 275 274 276 276
Height
5732 5733 5734 5735 5736 5737 5737 5738 5740 5740 5742 5742 5742 5743 5742 5742 5742 5741 5741 5740 5740 5739 5739 5738 5738 5737 5736 5734 5733 5731 5730 5728 5727 5725 5723 5720 5718 5716
5721 5722 5723 5724 5725 5725 5725 5726 5727 5728 5730 5731 5731 5732 5731 5731 5730 5730 5730 5729 5729 5728 5728 5727 5726 5725 5724 5722 5721 5719 5718 5716 5714 5712 5710 5708 5706 5704
5710 5711 5712 5713 5713 5713 5713 5714 5714 5715 5717 5719 5719 5719 5719 5719 5718 5718 5718 5718 5717 5716 5716 5715 5713 5713 5711 5710 5708 5706 5705 5703 5701 5699 5696 5695 5692 5691
5699 5699 5700 5700 5700 5700 5701 5701 5702 5703 5704 5706 5707 5706 5706 5706 5705 5705 5705 5705 5704 5703 5702 5701 5700 5698 5697 5695 5694 5692 5690 5688 5687 5685 5683 5681 5679 5677
5686 5687 5687 5687 5688 5688 5688 5688 5689 5690 5691 5692 5693 5693 5693 5692 5692 5692 5691 5691 5690 5689 5688 5687 5685 5684 5682 5680 5679 5677 5676 5674 5672 5670 5668 5666 5664 5662
5673 5674 5674 5674 5674 5674 5675 5675 5675 5676 5676 5677 5678 5679 5679 5678 5677 5677 5677 5676 5675 5674 5673 5672 5670 5668 5667 5665 5663 5662 5660 5658 5656 5655 5653 5651 5649 5647
5659 5660 5660 5660 5660 5660 5660 5661 5661 5661 5661 5662 5662 5663 5663 5662 5662 5661 5661 5660 5660 5658 5657 5656 5655 5653 5651 5649 5647 5646 5644 5642 5641 5640 5638 5636 5634 5632
5645 5646 5646 5646 5646 5646 5645 5646 5646 5646 5646 5646 5647 5647 5647 5646 5645 5644 5643 5643 5644 5644 5641 5640 5638 5636 5635 5633 5631 5629 5628 5627 5625 5624 5622 5621 5619 5617
5630 5630 5631 5631 5631 5630 5630 5630 5630 5629 5629 5630 5630 5630 5630 5630 5628 5628 5626 5625 5626 5625 5623 5623 5622 5620 5618 5616 5614 5613 5611 5610 5609 5608 5606 5604 5603 5601
5616 5616 5615 5616 5615 5615 5615 5615 5615 5615 5614 5614 5614 5614 5613 5612 5610 5609 5608 5608 5608 5608 5606 5606 5605 5604 5602 5601 5598 5596 5595 5593 5592 5591 5589 5588 5587 5585
5601 5601 5600 5600 5600 5599 5599 5599 5600 5599 5598 5597 5597 5597 5596 5595 5593 5592 5591 5591 5591 5592 5590 5588 5588 5587 5586 5585 5582 5580 5578 5576 5575 5574 5573 5572 5571 5570
5586 5586 5585 5585 5584 5583 5583 5583 5583 5583 5582 5582 5582 5581 5580 5578 5577 5576 5575 5574 5574 5575 5574 5572 5571 5569 5570 5570 5567 5564 5562 5560 5559 5558 5557 5556 5555 5554
5571 5571 5571 5570 5569 5568 5567 5566 5566 5566 5566 5566 5566 5565 5564 5563 5562 5561 5559 5558 5558 5558 5558 5555 5554 5553 5552 5553 5552 5549 5547 5545 5544 5543 5541 5540 5539 5538
5556 5556 5555 5555 5554 5553 5552 5551 5550 5549 5549 5550 5550 5549 5548 5548 5547 5546 5545 5543 5542 5541 5540 5539 5538 5537 5536 5536 5536 5535 5532 5530 5529 5527 5526 5525 5524 5523
5540 5540 5540 5539 5538 5537 5536 5535 5535 5534 5534 5534 5534 5534 5533 5532 5532 5530 5529 5528 5527 5526 5524 5523 5522 5521 5520 5520 5520 5519 5518 5516 5514 5512 5511 5510 5509 5508
5524 5524 5524 5523 5522 5522 5521 5521 5520 5519 5519 5519 5519 5519 5518 5517 5516 5515 5514 5513 5513 5512 5510 5508 5507 5506 5505 5505 5504 5503 5502 5501 5500 5498 5497 5496 5494 5492
5509 5509 5509 5508 5507 5507 5507 5506 5505 5505 5504 5504 5504 5504 5503 5502 5502 5500 5499 5498 5498 5497 5497 5495 5493 5491 5491 5490 5489 5488 5488 5486 5485 5484 5482 5482 5480 5478
5494 5494 5493 5493 5492 5492 5492 5492 5491 5491 5490 5490 5490 5489 5488 5488 5487 5486 5485 5484 5483 5483 5482 5481 5480 5479 5478 5477 5476 5474 5473 5472 5471 5470 5468 5467 5467 5465
5479 5479 5479 5478 5478 5478 5478 5478 5478 5477 5476 5476 5475 5475 5474 5473 5473 5472 5471 5470 5469 5469 5468 5467 5466 5464 5464 5465 5465 5461 5459 5458 5457 5456 5455 5454 5454 5453
5465 5465 5465 5465 5464 5464 5464 5464 5464 5464 5463 5462 5461 5461 5460 5459 5459 5458 5457 5457 5456 5456 5455 5454 5452 5451 5450 5451 5451 5449 5446 5445 5445 5444 5443 5442 5442 5441
5452 5452 5452 5452 5452 5452 5451 5451 5451 5450 5450 5449 5448 5447 5446 5446 5445 5445 5444 5443 5442 5442 5442 5441 5440 5438 5437 5436 5436 5437 5436 5433 5432 5432 5431 5431 5431 5431
5440 5440 5440 5439 5439 5439 5439 5438 5438 5437 5436 5436 5435 5435 5434 5433 5432 5432 5431 5430 5430 5429 5429 5428 5427 5425 5424 5424 5424 5424 5425 5423 5422 5421 5420 5420 5420 5420
5428 5428 5427 5427 5427 5426 5426 5426 5425 5425 5424 5423 5423 5422 5421 5420 5420 5419 5418 5417 5417 5416 5416 5415 5415 5413 5413 5412 5412 5412 5413 5412 5412 5411 5411 5410 5410 5410